Temp
57 58 57 57 57 56 56 55 55 55 54 54 53 53 52 52 52 52 52 52 51 51 51 51 51 51 52 52 52 52 52 52 51 51 51 50 50 49 49 49 49 49 48 48 47 46 46 46 47 47 49 50
54 54 54 54 53 53 53 52 52 52 51 51 50 50 49 49 49 49 49 49 49 49 48 48 49 49 49 50 50 50 50 50 50 49 49 48 48 47 47 47 47 47 47 46 45 45 45 45 45 46 47 48
52 50 51 51 50 50 50 49 49 49 48 48 48 47 47 47 47 47 46 46 47 47 46 46 46 47 48 48 48 48 48 48 48 48 47 47 46 45 45 44 44 45 45 45 44 44 44 44 44 45 46 47
52 49 48 48 48 47 47 47 46 46 46 46 46 45 46 46 47 46 45 44 45 44 44 44 43 44 46 46 46 46 46 46 47 46 46 45 44 44 43 43 42 42 43 43 43 43 43 43 43 45 46 45
50 49 48 47 46 45 45 45 45 45 45 45 45 45 45 46 46 46 45 44 44 42 43 42 42 42 43 44 43 44 44 45 45 45 44 44 43 42 41 41 41 41 42 42 42 42 42 42 43 43 44 44
50 49 48 48 48 47 46 44 44 45 45 44 46 44 45 46 46 45 43 43 40 43 42 42 41 40 41 42 42 42 42 42 43 43 43 42 42 41 41 40 42 42 41 41 41 41 41 42 43 42 43 43
50 50 50 48 47 46 44 44 44 45 44 44 44 44 45 44 44 44 43 40 39 40 40 40 40 39 39 40 40 39 40 40 41 41 41 41 40 40 40 40 40 41 41 41 40 41 41 41 41 41 41 41
51 50 49 48 47 47 46 45 44 43 43 43 42 43 44 43 42 42 43 39 38 39 42 41 40 39 39 38 38 37 38 38 38 39 39 39 38 38 38 39 39 40 40 40 40 40 40 40 40 39 40 39
49 49 48 47 46 45 45 44 43 43 42 41 41 42 43 41 41 41 41 40 41 41 40 40 40 40 39 39 38 37 37 37 37 38 38 38 38 38 38 38 38 38 38 39 39 39 39 39 39 39 39 39
47 48 47 46 45 44 44 42 42 42 41 41 40 41 42 42 40 40 40 39 39 39 39 38 38 38 39 37 37 37 36 36 36 37 38 37 37 37 38 37 37 37 37 38 38 38 38 38 39 39 38 37
47 46 45 44 43 43 42 42 41 40 40 39 39 39 40 40 39 39 39 38 37 36 37 36 37 37 37 36 36 37 35 35 36 37 37 37 36 36 36 36 37 37 37 37 37 37 37 37 36 36 36 36
45 44 43 43 42 41 39 40 39 39 39 39 38 38 39 39 39 38 37 36 36 35 36 35 35 36 35 35 35 36 35 34 35 36 37 37 36 35 36 35 36 37 37 37 37 35 35 35 35 36 36 36
43 42 42 42 40 39 38 39 38 38 38 38 37 37 36 37 37 37 36 35 35 35 34 34 34 34 34 34 34 34 34 34 35 35 35 36 35 35 35 35 36 36 36 36 36 35 35 35 35 35 35 35
42 41 40 39 39 39 39 37 37 37 37 36 36 35 35 35 36 35 35 34 34 33 33 33 33 33 33 33 33 33 33 33 34 34 34 34 35 34 34 34 34 36 35 35 35 35 35 35 35 35 34 33
40 40 39 39 39 38 37 37 37 37 36 35 34 34 34 34 34 34 34 33 33 33 32 32 32 32 33 32 32 32 32 33 33 34 33 33 33 33 33 34 34 35 34 34 35 35 34 34 35 34 34 34
39 39 38 38 38 37 37 37 36 35 35 34 33 33 32 33 33 33 32 32 32 32 31 31 31 31 31 31 31 31 30 31 32 32 33 32 33 33 33 33 34 34 34 34 35 35 34 34 34 33 34 33
38 38 38 38 37 37 36 36 35 34 34 33 33 32 32 32 32 32 32 31 31 31 30 30 30 30 30 30 30 31 30 30 31 32 32 32 33 33 33 32 32 33 35 34 34 34 34 34 33 34 33 33
38 37 37 37 37 37 36 35 34 33 33 33 33 32 31 31 30 30 31 31 30 31 30 30 29 29 29 29 29 30 30 30 30 31 30 31 33 31 31 30 31 32 33 34 34 34 34 34 33 34 33 32
36 36 36 36 36 36 35 35 34 34 33 33 33 32 30 30 29 29 29 29 30 29 30 30 28 28 28 29 29 29 29 29 30 30 30 29 30 31 30 30 31 31 32 32 32 33 34 33 34 33 32 32
35 35 34 34 34 35 35 34 33 32 32 32 32 32 30 29 29 28 28 29 29 28 29 29 28 27 28 28 29 29 29 29 28 29 30 29 29 28 29 29 30 32 31 32 31 33 33 33 33 33 32 31
34 34 33 33 33 33 34 33 32 32 32 32 31 31 29 28 28 27 27 28 28 28 28 27 27 27 27 28 28 28 28 28 28 28 29 29 28 28 27 28 28 30 31 30 31 33 32 33 33 32 32 31
33 33 33 32 32 32 32 32 33 33 32 31 30 30 29 28 27 27 27 27 27 27 27 26 26 26 26 28 28 28 28 27 27 28 28 27 28 27 27 26 26 27 28 30 30 32 32 32 33 32 32 32
33 32 32 31 31 30 30 30 31 32 31 30 30 28 28 28 28 26 26 26 27 26 27 26 26 26 26 27 27 27 27 26 25 26 27 26 26 28 27 25 25 25 26 28 30 31 31 32 32 33 32 32
34 33 32 30 30 29 29 29 29 29 29 30 29 28 28 27 27 26 25 25 25 26 25 25 25 25 25 26 26 25 24 24 23 23 24 26 25 25 27 26 25 25 25 28 30 30 33 33 31 32 31 32
35 33 32 32 31 29 29 28 28 28 28 27 27 27 27 27 26 25 25 24 24 24 24 25 25 25 25 26 25 24 23 22 22 23 24 26 27 24 24 24 24 23 23 26 32 33 31 32 34 31 30 32
36 36 35 32 30 30 29 29 28 27 27 26 25 26 26 26 26 25 24 24 24 23 24 24 24 24 23 24 25 24 24 23 22 22 23 25 26 27 23 22 22 21 24 29 26 29 33 37 35 32 32 32
34 33 33 32 30 30 28 29 28 27 26 26 25 24 24 25 25 25 24 23 23 23 22 23 23 23 23 22 24 24 23 22 21 22 21 22 23 24 25 23 23 20 21 18 23 28 31 29 33 35 37 35
33 32 31 31 30 30 29 26 26 26 26 25 24 23 23 24 24 23 23 23 23 22 22 21 21 22 22 21 22 23 22 21 20 19 19 20 21 22 21 21 19 21 19 18 20 26 24 24 26 27 31 26
31 30 29 29 28 28 27 28 27 27 25 24 23 23 22 21 22 22 22 23 22 22 21 20 20 19 20 19 19 21 20 19 18 18 18 19 19 19 18 16 16 18 19 16 17 15 22 26 27 21 23 19
31 31 29 28 27 27 28 27 28 26 24 24 23 21 21 21 21 21 21 21 21 20 20 19 18 17 15 16 16 16 16 17 16 15 15 16 18 17 17 16 15 13 17 16 12 12 12 14 16 15 14 17
32 31 32 32 32 32 31 29 27 26 25 23 22 22 21 20 20 19 19 18 19 18 17 17 16 16 15 14 14 14 13 12 11 11 11 13 14 15 16 16 12 12 12 16 12 9 10 8 7 7 8 10
MSLP
1026.21 1026.21 1026.29 1026.41 1026.53 1026.69 1026.81 1026.89 1026.93 1026.97 1027.01 1027.09 1027.17 1027.17 1027.21 1027.21 1027.17 1027.13 1027.09 1027.05 1027.05 1027.01 1026.93 1026.81 1026.69 1026.53 1026.37 1026.29 1026.13 1026.01 1025.89 1025.77 1025.69 1025.65 1025.57 1025.49 1025.37 1025.29 1025.21 1025.13 1025.01 1024.89 1024.81 1024.73 1024.61 1024.45 1024.29 1024.13 1023.93 1023.69 1023.37 1023.21
1026.77 1026.77 1026.85 1027.01 1027.13 1027.21 1027.25 1027.29 1027.33 1027.37 1027.45 1027.49 1027.57 1027.61 1027.61 1027.61 1027.57 1027.57 1027.53 1027.53 1027.45 1027.41 1027.37 1027.29 1027.13 1027.01 1026.85 1026.69 1026.57 1026.45 1026.33 1026.21 1026.09 1026.01 1025.97 1025.89 1025.81 1025.73 1025.69 1025.57 1025.41 1025.33 1025.17 1025.05 1024.97 1024.81 1024.69 1024.53 1024.33 1024.13 1023.93 1023.81
1027.29 1027.33 1027.37 1027.41 1027.45 1027.53 1027.61 1027.65 1027.73 1027.81 1027.85 1027.93 1027.93 1027.93 1027.93 1027.89 1027.93 1027.93 1027.93 1027.93 1027.89 1027.81 1027.81 1027.77 1027.61 1027.45 1027.29 1027.13 1027.01 1026.85 1026.73 1026.57 1026.45 1026.37 1026.33 1026.25 1026.17 1026.09 1026.01 1025.97 1025.85 1025.65 1025.53 1025.41 1025.33 1025.21 1025.09 1024.93 1024.73 1024.53 1024.33 1024.37
1027.45 1027.73 1027.73 1027.73 1027.81 1027.89 1028.01 1028.05 1028.13 1028.17 1028.17 1028.21 1028.25 1028.29 1028.25 1028.21 1028.13 1028.21 1028.29 1028.33 1028.33 1028.37 1028.29 1028.25 1028.13 1027.93 1027.73 1027.61 1027.45 1027.29 1027.17 1027.01 1026.85 1026.73 1026.61 1026.53 1026.49 1026.49 1026.41 1026.33 1026.25 1026.13 1025.97 1025.85 1025.77 1025.65 1025.49 1025.29 1025.09 1024.85 1024.81 1024.89
1027.73 1027.97 1027.93 1028.01 1028.21 1028.33 1028.41 1028.45 1028.45 1028.45 1028.45 1028.41 1028.49 1028.53 1028.57 1028.41 1028.45 1028.57 1028.69 1028.73 1028.73 1028.69 1028.65 1028.61 1028.49 1028.41 1028.17 1028.01 1027.89 1027.77 1027.61 1027.41 1027.21 1027.05 1026.97 1026.93 1026.93 1026.89 1026.81 1026.73 1026.61 1026.53 1026.41 1026.29 1026.17 1026.05 1025.89 1025.61 1025.33 1025.45 1025.37 1025.25
1027.89 1028.09 1028.17 1028.29 1028.41 1028.53 1028.69 1028.73 1028.69 1028.69 1028.73 1028.81 1028.81 1028.85 1028.77 1028.81 1028.89 1028.97 1029.09 1029.13 1029.13 1029.01 1029.01 1028.89 1028.89 1028.77 1028.61 1028.41 1028.29 1028.13 1027.97 1027.77 1027.69 1027.57 1027.45 1027.37 1027.29 1027.17 1027.05 1026.93 1026.65 1026.65 1026.65 1026.61 1026.49 1026.33 1026.17 1025.93 1025.89 1025.93 1025.85 1025.73
1028.01 1028.17 1028.29 1028.49 1028.65 1028.81 1028.97 1029.05 1029.01 1029.05 1029.17 1029.21 1029.25 1029.21 1029.17 1029.21 1029.33 1029.37 1029.45 1029.61 1029.65 1029.53 1029.41 1029.33 1029.21 1029.09 1028.97 1028.81 1028.65 1028.53 1028.41 1028.33 1028.17 1028.01 1027.85 1027.73 1027.61 1027.49 1027.37 1027.21 1027.17 1027.13 1027.05 1026.93 1026.89 1026.69 1026.53 1026.45 1026.53 1026.49 1026.41 1026.29
1028.13 1028.37 1028.53 1028.69 1028.81 1028.93 1029.09 1029.21 1029.37 1029.49 1029.57 1029.65 1029.69 1029.65 1029.61 1029.65 1029.77 1029.73 1029.69 1029.81 1029.77 1029.57 1029.45 1029.37 1029.37 1029.33 1029.25 1029.13 1029.05 1029.01 1028.77 1028.65 1028.53 1028.41 1028.29 1028.25 1028.17 1027.97 1027.89 1027.73 1027.65 1027.53 1027.45 1027.37 1027.29 1027.21 1027.13 1027.09 1027.09 1027.01 1026.89 1026.89
1028.37 1028.65 1028.73 1028.93 1029.13 1029.29 1029.41 1029.57 1029.69 1029.81 1029.93 1030.05 1030.09 1030.05 1030.01 1030.09 1030.05 1030.05 1030.01 1030.05 1029.93 1029.85 1029.81 1029.73 1029.61 1029.49 1029.45 1029.45 1029.41 1029.37 1029.21 1029.13 1029.05 1028.81 1028.73 1028.65 1028.49 1028.41 1028.37 1028.25 1028.21 1028.13 1028.05 1027.89 1027.73 1027.73 1027.65 1027.53 1027.41 1027.33 1027.33 1027.33
1028.77 1028.85 1028.97 1029.25 1029.45 1029.61 1029.81 1029.97 1030.09 1030.21 1030.29 1030.41 1030.49 1030.45 1030.37 1030.33 1030.33 1030.33 1030.37 1030.41 1030.33 1030.25 1030.21 1030.13 1030.05 1030.01 1030.01 1029.97 1029.89 1029.81 1029.77 1029.73 1029.57 1029.33 1029.13 1029.05 1028.93 1028.81 1028.77 1028.77 1028.73 1028.69 1028.53 1028.33 1028.17 1028.13 1028.09 1027.89 1027.81 1027.77 1027.81 1027.85
1028.93 1029.17 1029.45 1029.69 1029.93 1029.97 1030.21 1030.37 1030.45 1030.61 1030.73 1030.89 1030.97 1030.85 1030.77 1030.69 1030.69 1030.73 1030.73 1030.73 1030.73 1030.73 1030.61 1030.61 1030.57 1030.53 1030.53 1030.45 1030.41 1030.33 1030.21 1030.13 1029.89 1029.65 1029.45 1029.33 1029.33 1029.29 1029.25 1029.21 1029.09 1028.97 1028.85 1028.69 1028.61 1028.53 1028.49 1028.45 1028.41 1028.33 1028.29 1028.25
1029.29 1029.61 1029.81 1030.01 1030.25 1030.45 1030.81 1030.77 1030.89 1031.05 1031.21 1031.29 1031.29 1031.37 1031.29 1031.17 1031.13 1031.13 1031.09 1031.13 1031.13 1031.13 1031.09 1031.13 1031.13 1031.05 1030.97 1030.93 1030.85 1030.69 1030.57 1030.41 1030.09 1029.85 1029.65 1029.53 1029.61 1029.57 1029.49 1029.49 1029.33 1029.17 1029.09 1029.05 1029.05 1029.01 1028.97 1028.89 1028.77 1028.69 1028.61 1028.53
1029.73 1029.97 1030.13 1030.33 1030.57 1030.89 1031.13 1031.13 1031.29 1031.49 1031.53 1031.57 1031.69 1031.77 1031.81 1031.69 1031.53 1031.49 1031.53 1031.61 1031.57 1031.53 1031.53 1031.57 1031.49 1031.41 1031.37 1031.33 1031.25 1031.05 1030.85 1030.65 1030.33 1030.09 1029.93 1029.77 1029.77 1029.81 1029.77 1029.73 1029.61 1029.45 1029.49 1029.45 1029.37 1029.25 1029.17 1029.09 1029.01 1028.93 1028.81 1028.69
1030.01 1030.29 1030.53 1030.73 1030.97 1031.21 1031.37 1031.53 1031.69 1031.77 1031.81 1032.01 1032.09 1032.17 1032.25 1032.17 1032.05 1032.01 1031.97 1032.05 1032.01 1031.93 1031.97 1031.89 1031.85 1031.77 1031.73 1031.69 1031.61 1031.41 1031.21 1031.01 1030.69 1030.49 1030.37 1030.21 1030.05 1030.13 1030.17 1030.05 1029.97 1029.65 1029.69 1029.69 1029.61 1029.45 1029.41 1029.25 1029.13 1029.01 1028.93 1028.89
1030.41 1030.65 1030.81 1031.05 1031.25 1031.49 1031.69 1031.89 1031.89 1032.01 1032.25 1032.41 1032.57 1032.73 1032.73 1032.61 1032.57 1032.53 1032.53 1032.49 1032.41 1032.29 1032.29 1032.25 1032.17 1032.13 1032.09 1032.01 1031.97 1031.89 1031.69 1031.41 1031.17 1030.93 1030.77 1030.69 1030.57 1030.57 1030.49 1030.33 1030.21 1029.93 1029.85 1029.81 1029.69 1029.65 1029.57 1029.49 1029.37 1029.29 1029.21 1029.21
1030.69 1030.93 1031.09 1031.33 1031.49 1031.81 1032.05 1032.13 1032.21 1032.41 1032.61 1032.85 1033.05 1033.17 1033.13 1033.05 1033.05 1033.01 1033.05 1032.97 1032.85 1032.77 1032.69 1032.65 1032.57 1032.57 1032.49 1032.45 1032.37 1032.29 1032.21 1031.89 1031.57 1031.37 1031.17 1031.05 1030.97 1030.93 1030.81 1030.53 1030.37 1030.25 1030.01 1029.93 1029.89 1029.81 1029.73 1029.77 1029.73 1029.69 1029.57 1029.49
1030.97 1031.17 1031.37 1031.57 1031.77 1032.09 1032.33 1032.37 1032.57 1032.73 1032.97 1033.17 1033.37 1033.49 1033.53 1033.49 1033.45 1033.37 1033.37 1033.37 1033.25 1033.09 1033.05 1033.05 1032.97 1032.85 1032.85 1032.85 1032.81 1032.65 1032.49 1032.21 1031.93 1031.69 1031.49 1031.29 1031.13 1031.05 1030.89 1030.73 1030.57 1030.41 1030.13 1030.13 1030.09 1030.01 1030.01 1030.01 1030.09 1030.01 1029.85 1029.69
1031.09 1031.41 1031.65 1031.81 1032.05 1032.29 1032.45 1032.65 1032.85 1033.05 1033.29 1033.45 1033.57 1033.77 1033.89 1033.89 1033.89 1033.85 1033.77 1033.69 1033.61 1033.41 1033.29 1033.29 1033.21 1033.21 1033.21 1033.21 1033.09 1032.93 1032.73 1032.41 1032.21 1031.89 1031.77 1031.57 1031.21 1031.25 1031.09 1031.05 1030.89 1030.57 1030.41 1030.29 1030.25 1030.17 1030.29 1030.33 1030.29 1030.13 1029.97 1029.93
1031.45 1031.69 1031.89 1032.13 1032.33 1032.57 1032.69 1032.93 1033.09 1033.33 1033.53 1033.65 1033.81 1033.97 1034.21 1034.29 1034.29 1034.29 1034.25 1034.09 1033.89 1033.77 1033.61 1033.49 1033.53 1033.53 1033.57 1033.49 1033.29 1033.17 1033.05 1032.77 1032.45 1032.17 1032.01 1031.93 1031.53 1031.33 1031.37 1031.33 1031.13 1030.97 1030.69 1030.65 1030.57 1030.49 1030.45 1030.49 1030.37 1030.21 1030.09 1030.05
1031.77 1032.01 1032.25 1032.49 1032.73 1032.81 1032.97 1033.09 1033.37 1033.65 1033.81 1033.93 1034.09 1034.25 1034.49 1034.69 1034.69 1034.73 1034.65 1034.45 1034.25 1034.05 1033.93 1033.81 1033.81 1033.89 1033.89 1033.81 1033.53 1033.45 1033.29 1033.01 1032.77 1032.49 1032.17 1032.13 1032.01 1031.69 1031.65 1031.61 1031.37 1031.13 1031.05 1030.89 1030.89 1030.77 1030.61 1030.53 1030.49 1030.21 1030.09 1030.09
1032.09 1032.29 1032.57 1032.81 1033.05 1033.09 1033.17 1033.33 1033.61 1033.85 1034.05 1034.21 1034.37 1034.53 1034.73 1035.01 1035.09 1035.09 1035.01 1034.85 1034.65 1034.41 1034.29 1034.17 1034.13 1034.21 1034.21 1034.05 1033.81 1033.61 1033.49 1033.37 1033.17 1032.85 1032.45 1032.29 1032.41 1032.33 1032.13 1031.97 1031.81 1031.45 1031.33 1031.21 1031.05 1030.81 1030.73 1030.57 1030.41 1030.25 1030.17 1030.17
1032.21 1032.53 1032.77 1033.01 1033.29 1033.45 1033.53 1033.65 1033.77 1034.01 1034.21 1034.45 1034.69 1034.89 1035.09 1035.29 1035.33 1035.41 1035.33 1035.21 1035.01 1034.81 1034.73 1034.65 1034.57 1034.53 1034.45 1034.17 1033.97 1033.81 1033.69 1033.69 1033.53 1033.25 1032.93 1032.77 1032.73 1032.73 1032.61 1032.41 1032.33 1032.05 1031.81 1031.49 1031.17 1030.81 1030.73 1030.53 1030.29 1030.29 1030.29 1030.29
1032.41 1032.69 1032.93 1033.21 1033.49 1033.69 1033.89 1034.09 1034.21 1034.25 1034.37 1034.65 1034.97 1035.25 1035.45 1035.45 1035.45 1035.61 1035.65 1035.61 1035.41 1035.21 1035.09 1035.01 1034.97 1034.81 1034.69 1034.37 1034.13 1034.05 1033.93 1033.85 1033.85 1033.65 1033.45 1033.29 1033.25 1033.01 1032.97 1033.05 1033.09 1032.93 1032.45 1031.81 1031.29 1030.97 1030.73 1030.49 1030.37 1030.21 1030.29 1030.33
1032.13 1032.37 1032.73 1033.13 1033.49 1033.73 1034.05 1034.29 1034.49 1034.65 1034.81 1035.01 1035.25 1035.53 1035.61 1035.69 1035.69 1035.81 1035.89 1035.89 1035.85 1035.69 1035.57 1035.37 1035.29 1035.17 1034.93 1034.65 1034.45 1034.41 1034.45 1034.37 1034.41 1034.29 1033.93 1033.65 1033.69 1033.37 1032.97 1033.13 1033.33 1033.29 1032.93 1031.89 1031.21 1030.85 1030.33 1030.25 1030.29 1030.17 1030.21 1030.25
1031.61 1031.93 1032.45 1032.85 1033.09 1033.57 1034.05 1034.33 1034.65 1034.89 1035.13 1035.41 1035.69 1035.81 1035.81 1035.85 1035.93 1036.09 1036.13 1036.17 1036.13 1036.13 1035.93 1035.73 1035.65 1035.41 1035.21 1034.97 1034.85 1034.85 1034.97 1035.05 1035.01 1034.77 1034.45 1034.01 1033.77 1033.77 1033.29 1033.33 1033.69 1033.61 1033.37 1031.89 1030.09 1029.89 1030.01 1029.81 1029.81 1030.17 1030.25 1030.09
1031.49 1031.69 1031.93 1032.33 1032.97 1033.41 1033.85 1034.17 1034.45 1034.89 1035.33 1035.73 1036.01 1036.13 1036.13 1036.09 1036.21 1036.29 1036.33 1036.41 1036.45 1036.49 1036.33 1036.09 1035.85 1035.77 1035.65 1035.37 1035.21 1035.25 1035.29 1035.25 1035.21 1035.13 1034.89 1034.45 1033.85 1033.81 1033.97 1034.05 1034.37 1034.17 1032.93 1030.89 1031.21 1029.69 1028.49 1027.89 1028.89 1029.77 1029.85 1029.93
1031.69 1032.13 1032.53 1032.77 1033.21 1033.45 1034.05 1034.57 1034.81 1035.17 1035.61 1035.93 1036.17 1036.37 1036.45 1036.45 1036.49 1036.49 1036.57 1036.73 1036.77 1036.73 1036.69 1036.49 1036.29 1036.17 1036.09 1036.01 1035.65 1035.37 1035.37 1035.45 1035.49 1035.49 1035.49 1035.21 1034.77 1034.21 1034.17 1034.53 1034.61 1034.69 1034.05 1033.65 1032.57 1030.73 1028.89 1028.77 1027.73 1027.97 1028.13 1029.13
1032.09 1032.45 1032.85 1033.21 1033.49 1033.89 1034.05 1034.65 1035.21 1035.45 1035.77 1036.09 1036.33 1036.57 1036.73 1036.77 1036.81 1036.85 1036.85 1036.97 1036.97 1036.97 1037.01 1036.97 1036.85 1036.69 1036.57 1036.49 1036.25 1035.93 1035.77 1035.85 1035.97 1036.09 1036.01 1035.73 1035.41 1034.97 1034.61 1034.89 1035.17 1034.97 1034.93 1034.69 1032.97 1029.53 1030.61 1030.97 1030.01 1028.65 1028.13 1030.13
1032.29 1032.73 1033.09 1033.45 1033.89 1034.13 1034.45 1034.73 1034.89 1035.13 1035.69 1036.17 1036.49 1036.65 1036.89 1037.13 1037.17 1037.17 1037.17 1037.13 1037.25 1037.25 1037.37 1037.41 1037.45 1037.37 1037.29 1037.09 1036.93 1036.61 1036.41 1036.41 1036.69 1036.77 1036.73 1036.49 1036.05 1035.93 1035.81 1035.89 1035.89 1035.73 1035.61 1035.45 1035.33 1034.73 1031.81 1029.81 1029.01 1031.65 1031.61 1032.37
1032.13 1032.33 1032.57 1032.93 1033.05 1033.33 1033.49 1033.81 1034.09 1034.49 1035.17 1035.77 1036.25 1036.73 1037.17 1037.41 1037.45 1037.49 1037.49 1037.45 1037.53 1037.69 1037.65 1037.73 1037.85 1037.97 1037.93 1037.81 1037.65 1037.41 1037.21 1037.21 1037.21 1037.45 1037.41 1037.21 1036.81 1036.85 1036.85 1036.61 1036.41 1036.45 1036.17 1036.41 1036.77 1036.81 1036.65 1036.17 1034.69 1034.61 1034.89 1033.17
1031.89 1032.09 1032.21 1032.13 1032.01 1032.05 1032.29 1032.89 1034.09 1034.93 1035.53 1035.97 1036.49 1036.89 1037.21 1037.49 1037.73 1037.85 1037.89 1038.01 1038.05 1038.13 1038.13 1038.13 1038.25 1038.37 1038.45 1038.37 1038.17 1038.01 1037.89 1037.93 1038.05 1038.21 1038.25 1038.01 1037.69 1037.61 1037.61 1037.29 1037.13 1036.89 1036.81 1036.65 1037.29 1037.89 1037.77 1038.01 1038.37 1038.29 1036.81 1034.89
Wind_Speed
21 21 22 22 21 21 21 21 21 21 21 21 21 21 21 21 21 22 22 23 23 22 22 22 22 22 21 21 21 20 20 20 20 20 20 21 21 21 21 21 21 22 22 22 22 22 22 21 21 20 17 11
22 22 22 22 21 21 21 21 21 21 21 20 20 20 20 21 21 21 22 22 23 23 22 22 22 21 21 20 20 20 21 20 20 21 21 21 21 20 20 21 21 22 22 22 22 22 21 21 21 19 18 12
17 22 21 22 21 21 21 21 21 21 20 19 19 19 18 18 19 20 20 20 22 22 22 21 21 22 21 21 21 21 21 21 21 21 21 21 21 21 20 21 21 22 23 22 22 22 21 20 19 19 14 12
13 17 21 21 21 21 21 20 19 19 18 19 18 18 17 17 14 15 16 19 16 19 21 22 20 22 21 21 21 21 21 22 22 22 22 22 22 21 19 19 20 21 22 22 22 21 20 18 18 12 11 12
11 12 14 15 19 19 19 18 18 17 17 15 16 15 15 13 12 11 10 11 12 15 15 20 21 22 21 21 20 21 21 21 22 22 22 21 21 20 18 16 16 18 20 21 21 20 19 17 12 11 11 11
7 8 12 12 11 12 13 14 14 14 12 13 11 13 11 10 9 9 9 10 11 10 13 15 20 20 21 21 21 20 21 22 21 21 21 20 20 20 18 18 10 11 14 20 20 19 19 12 11 11 11 10
8 9 8 9 9 8 12 12 13 11 12 11 11 10 9 9 8 8 9 10 10 9 12 13 18 19 19 20 21 19 19 19 20 20 20 21 19 19 19 12 10 9 9 10 17 15 13 11 11 11 11 10
8 8 7 7 7 7 8 9 9 11 11 10 11 9 8 8 8 8 7 9 12 10 8 9 13 17 16 17 18 19 13 16 18 18 18 18 16 12 9 9 9 9 9 10 10 10 10 9 10 10 10 9
8 7 7 7 7 8 7 8 8 8 9 10 10 9 8 8 8 8 7 8 8 8 8 9 9 10 10 10 11 15 11 10 10 10 10 9 10 9 9 10 10 10 10 9 10 10 9 9 9 9 9 9
8 7 7 7 7 8 7 8 8 8 8 8 9 8 8 7 8 8 7 8 8 8 8 9 9 9 9 9 9 10 8 8 8 7 8 8 8 8 9 9 9 9 9 9 9 9 10 10 9 9 9 9
7 8 8 8 8 7 7 7 8 8 8 9 9 9 8 7 7 7 7 8 8 9 8 8 8 8 8 8 8 8 7 8 7 7 7 8 8 8 8 9 8 9 9 9 10 10 10 10 9 9 8 8
9 8 8 8 8 8 8 8 8 8 8 8 9 10 8 8 7 7 7 8 8 8 8 8 8 7 8 7 7 7 7 7 7 7 7 7 8 8 8 8 9 8 9 9 9 9 9 9 8 8 8 8
8 7 8 8 8 8 8 8 7 8 7 8 8 10 10 8 7 7 7 8 7 7 8 8 8 7 7 7 7 7 7 7 7 8 7 7 8 8 8 7 7 7 8 8 8 8 9 9 8 8 9 9
8 7 9 8 9 8 8 8 8 8 8 8 8 8 9 9 8 8 7 7 6 7 8 7 7 7 7 7 7 7 8 8 7 8 8 8 8 8 7 6 6 6 7 7 8 9 9 9 9 9 9 10
9 8 9 9 8 8 8 8 8 8 8 9 9 8 9 9 9 7 7 7 7 7 7 7 7 7 7 7 7 7 7 7 8 7 8 9 8 7 6 6 6 6 6 7 8 8 10 9 9 9 8 8
9 9 9 9 8 8 8 8 8 9 9 9 8 9 8 8 8 7 7 7 7 7 7 7 7 7 7 7 7 7 7 7 7 8 8 8 7 7 5 5 6 6 6 7 7 8 10 9 9 8 7 7
8 8 8 8 8 8 8 8 8 8 8 8 8 8 9 9 8 7 7 7 7 7 7 7 7 7 7 7 6 6 8 8 6 6 6 7 6 6 6 6 6 5 6 7 7 8 9 8 8 7 7 7
8 8 8 8 8 8 8 7 8 8 8 8 8 8 9 9 9 8 6 6 7 6 6 6 7 7 7 6 7 7 6 6 6 6 7 6 5 6 6 6 6 5 6 6 6 7 8 7 6 6 7 7
9 9 8 8 8 8 8 7 8 7 7 7 7 8 8 9 8 8 8 7 6 6 6 6 7 7 7 7 6 6 6 6 6 6 7 7 7 7 6 6 5 5 5 6 6 6 5 6 6 6 6 7
10 10 9 9 8 8 8 8 8 8 7 7 7 8 8 9 9 8 8 7 6 6 6 6 7 7 7 7 6 6 6 6 7 6 7 8 8 7 7 6 6 5 5 5 5 4 3 4 5 6 6 7
11 10 10 9 9 9 9 9 8 8 7 8 8 7 7 8 8 8 8 7 7 7 7 6 7 6 7 6 5 5 6 6 6 7 7 9 9 8 6 6 7 6 5 4 3 3 3 3 5 6 6 7
9 9 9 8 8 8 8 8 7 8 8 8 8 7 7 8 7 8 8 8 7 6 6 6 6 6 7 6 6 6 6 7 7 8 8 9 9 8 7 7 7 6 5 4 3 2 3 3 4 5 6 6
11 11 10 9 9 9 9 7 7 7 7 8 8 8 8 7 7 7 8 8 7 6 6 6 6 6 7 6 6 7 7 7 8 9 9 10 9 7 8 7 6 6 6 4 3 2 2 2 3 3 4 5
8 8 8 9 8 8 7 7 7 7 7 7 7 7 8 8 7 8 7 7 7 6 5 5 5 6 6 7 7 7 9 8 8 9 9 9 9 9 7 9 7 6 6 5 4 2 1 1 1 2 2 5
7 8 8 7 7 8 7 7 7 7 7 7 7 7 7 8 8 7 7 7 7 6 5 5 5 5 6 6 7 7 8 8 9 9 8 6 7 9 9 10 10 9 7 6 3 5 3 2 3 3 1 5
7 6 6 7 8 8 8 7 6 7 7 7 7 7 7 7 8 8 7 7 6 6 5 5 5 6 7 6 6 7 7 9 9 10 9 7 5 7 9 8 10 10 8 2 4 4 2 2 6 5 4 2
6 7 7 8 8 8 8 7 7 8 8 7 7 7 7 6 6 6 7 7 6 5 5 5 5 6 6 7 6 6 7 8 9 9 9 9 7 6 6 7 8 11 10 4 6 5 3 6 5 5 4 3
9 10 11 11 10 9 8 9 9 10 9 8 8 8 7 6 6 6 6 7 6 6 6 6 6 5 6 6 6 6 7 8 9 9 9 9 9 7 6 7 9 11 12 9 8 4 4 0 3 6 9 11
12 12 11 10 11 11 11 9 8 8 7 6 6 6 6 6 6 6 5 6 7 6 6 6 6 6 6 6 6 6 7 8 8 8 8 8 8 10 7 6 6 8 11 14 12 5 4 3 3 4 7 11
10 9 11 11 11 10 8 9 7 7 7 6 6 6 6 6 6 6 6 6 6 6 5 6 6 6 5 5 5 6 6 7 7 8 8 8 7 8 8 5 5 6 8 11 11 11 8 4 3 4 7 6
9 9 9 9 8 8 8 9 7 7 7 7 6 6 6 6 6 6 6 6 6 6 6 6 6 6 5 5 5 5 6 7 7 6 7 6 7 7 6 6 5 6 5 5 8 9 9 9 7 5 6 4
Wind_Direction
75 75 75 74 74 74 73 71 70 69 68 66 65 64 61 60 57 55 53 51 49 46 43 41 39 38 37 37 36 36 34 34 34 34 34 34 34 35 36 36 36 35 35 34 32 31 30 29 29 30 29 34
73 74 75 75 74 73 71 69 66 64 62 62 61 59 59 57 55 53 52 50 48 45 42 39 38 37 38 38 38 37 36 37 37 37 37 36 36 37 38 39 38 37 36 35 33 32 31 31 31 33 35 33
72 71 72 72 70 67 66 64 62 60 59 58 56 55 54 54 54 52 49 48 46 44 41 38 38 37 38 39 39 39 38 38 38 39 37 37 37 38 38 39 39 38 37 35 33 32 31 31 32 34 35 36
76 69 69 68 66 65 64 62 61 59 57 54 53 52 51 51 52 48 46 44 44 42 41 40 37 35 37 39 39 39 39 38 38 38 37 36 36 35 35 36 38 37 35 34 33 33 32 33 34 34 34 35
73 68 71 69 65 63 60 60 59 56 54 52 49 47 47 50 48 48 44 40 40 39 39 37 37 35 36 38 37 39 39 38 37 36 35 35 34 34 35 35 37 35 35 34 33 33 33 33 37 33 32 32
77 77 68 67 65 60 59 55 56 53 50 48 47 44 47 48 47 46 43 39 34 39 35 36 35 35 35 35 34 34 35 35 35 34 34 34 33 33 33 32 33 31 31 32 31 32 33 35 35 32 32 31
81 75 72 68 66 66 60 57 53 54 50 48 44 46 49 48 45 46 48 41 37 36 36 35 33 33 31 31 30 28 31 32 31 31 31 29 29 29 29 30 31 30 29 31 31 32 33 35 33 31 31 32
79 74 70 66 64 63 60 56 56 53 49 47 45 47 45 47 45 45 47 43 38 36 32 32 32 30 30 27 28 22 26 26 25 26 26 26 25 29 29 32 29 29 30 32 31 29 30 31 31 29 28 30
79 77 73 68 63 62 58 55 55 53 52 48 45 44 51 48 49 49 47 38 37 34 33 31 28 28 26 24 23 19 26 23 19 22 24 23 25 30 33 33 32 29 29 30 32 30 26 28 27 29 29 27
83 75 70 66 62 64 58 57 55 54 50 47 42 44 44 52 48 48 47 41 37 38 34 34 32 31 27 24 23 20 23 20 20 21 26 26 28 32 35 35 33 32 31 30 31 31 29 28 27 28 27 25
78 72 71 64 58 62 60 57 57 57 52 49 45 44 43 46 46 47 47 43 40 39 35 36 34 31 29 26 24 17 19 17 19 20 25 31 32 34 37 36 34 33 34 33 34 34 30 27 27 25 24 21
78 74 73 72 72 65 61 61 61 59 59 55 50 45 43 45 51 49 49 45 44 43 40 39 35 34 31 27 21 17 18 14 18 22 25 33 36 34 38 37 35 35 35 37 37 35 30 28 28 27 24 23
79 77 75 77 71 68 64 67 63 64 62 59 54 49 46 43 49 51 50 47 45 44 45 39 35 34 32 27 22 16 19 16 18 24 24 27 33 34 34 35 34 39 39 39 36 32 30 30 31 30 28 23
86 82 82 74 73 74 70 67 68 66 60 57 54 51 45 45 49 50 49 51 47 46 45 40 36 37 32 29 21 18 20 16 19 23 25 24 31 33 33 36 30 33 40 39 37 34 31 31 31 29 26 22
85 83 81 78 76 73 72 71 73 68 64 60 58 54 50 52 50 51 50 49 46 48 45 41 37 34 30 30 24 21 18 15 17 21 28 25 26 29 31 36 30 28 38 39 37 35 33 31 29 27 22 21
89 85 84 81 78 76 75 77 75 72 69 67 63 57 56 54 51 52 52 47 49 47 46 43 39 34 31 29 24 23 18 14 18 21 22 24 27 33 33 33 34 26 36 38 39 34 33 31 30 23 21 19
91 89 87 85 82 81 81 79 76 74 73 73 68 63 59 56 53 48 48 47 45 49 50 46 39 39 34 30 23 19 15 18 17 22 22 27 29 31 37 35 31 28 39 43 38 36 32 31 28 25 21 20
93 91 90 87 86 85 85 80 79 78 78 75 73 66 60 58 53 48 42 42 44 44 50 46 44 39 34 25 21 21 14 17 17 23 24 20 35 39 38 34 25 27 37 40 37 40 35 29 23 24 24 23
93 94 91 91 89 86 84 82 81 81 79 77 74 70 62 56 54 49 42 37 42 45 47 47 46 38 32 21 18 21 18 16 19 24 28 21 28 42 41 35 34 29 39 35 37 35 35 31 27 27 29 24
96 94 91 91 91 90 85 84 83 81 79 78 76 72 67 58 56 49 42 38 38 48 44 47 45 38 25 19 20 23 22 24 26 20 29 30 26 30 35 29 28 32 31 31 31 24 20 30 25 29 28 26
96 97 94 92 93 92 92 89 88 83 82 79 74 70 67 62 57 50 43 42 40 44 42 42 44 34 23 19 22 27 30 29 24 22 26 32 29 26 23 26 22 24 21 16 8 17 14 19 29 32 28 26
104 102 100 96 93 90 90 90 90 88 82 78 73 72 70 64 60 51 47 44 40 46 41 39 36 31 18 21 27 31 32 33 27 28 28 31 28 25 24 24 16 6 358 348 349 6 12 8 26 31 30 30
106 104 100 100 99 95 93 88 84 86 84 80 76 73 70 66 63 55 49 44 39 42 37 37 34 30 20 25 29 32 32 34 29 29 29 33 25 30 32 27 14 353 328 322 329 328 3 23 22 27 33 31
119 116 113 111 108 99 96 96 92 84 81 79 79 76 72 66 62 57 52 45 44 42 35 35 33 29 26 31 34 36 36 33 28 21 22 30 27 24 35 31 14 358 330 293 260 268 232 177 91 29 24 33
134 129 124 119 112 111 108 102 99 91 85 82 79 76 73 69 64 59 56 47 43 38 38 40 33 31 30 37 40 42 42 38 34 27 21 20 33 28 29 29 12 359 318 282 255 205 193 161 139 152 152 43
133 132 130 130 126 121 119 117 109 103 94 90 84 75 71 70 68 62 55 50 47 41 36 36 38 34 31 29 41 49 47 42 40 33 27 18 36 37 34 35 13 360 330 357 358 356 357 130 171 154 152 95
124 115 112 119 121 118 106 89 92 95 95 93 88 77 73 69 67 66 62 53 45 43 36 37 39 39 36 31 31 45 46 41 40 32 28 24 27 29 43 37 24 15 13 354 322 268 320 21 18 158 102 19
116 113 111 109 111 111 108 114 108 102 101 98 94 83 73 69 66 64 65 57 52 50 46 41 41 41 38 35 33 40 49 44 40 33 27 25 27 25 39 31 21 21 18 22 348 48 17 80 17 358 8 342
125 122 117 113 109 109 111 113 117 114 102 95 91 93 78 70 67 66 68 62 57 56 54 48 45 42 39 43 36 41 49 50 41 33 30 24 34 30 32 27 26 27 26 29 25 19 352 29 44 26 311 326
140 140 138 140 141 142 141 134 140 130 128 124 109 95 96 81 67 68 66 61 62 56 56 59 55 50 46 43 44 42 53 50 46 36 30 22 28 35 24 20 28 37 36 40 32 33 39 9 27 326 306 289
148 147 151 153 149 146 145 134 115 110 111 113 109 107 98 88 75 65 67 61 57 57 55 58 55 52 50 52 54 55 57 55 49 41 30 23 31 31 20 11 43 36 38 60 49 33 33 47 48 10 340 5